TimeCST,TemperatureF,Dew PointF,Humidity,Sea Level PressureIn,VisibilityMPH,Wind Direction,Wind SpeedMPH,Gust SpeedMPH,PrecipitationIn,Events,Conditions,WindDirDegrees,DateUTC
12:53 AM,39.9,32.0,73,30.23,10.0,North,6.9,-,N/A,,Overcast,10,2014-02-03 06:53:00
1:53 AM,39.9,32.0,73,30.23,10.0,North,6.9,-,N/A,,Overcast,10,2014-02-03 07:53:00
2:53 AM,39.0,32.0,76,30.21,10.0,NNE,8.1,-,N/A,,Overcast,20,2014-02-03 08:53:00
3:53 AM,39.0,33.1,79,30.20,10.0,North,5.8,-,N/A,,Overcast,10,2014-02-03 09:53:00
4:53 AM,39.0,33.1,79,30.20,10.0,NNE,5.8,-,N/A,,Overcast,30,2014-02-03 10:53:00
5:53 AM,39.0,33.1,79,30.20,10.0,North,10.4,-,N/A,,Overcast,10,2014-02-03 11:53:00
6:53 AM,39.0,33.1,79,30.20,10.0,NNE,8.1,-,N/A,,Overcast,20,2014-02-03 12:53:00
7:53 AM,39.0,33.1,79,30.22,10.0,Calm,Calm,-,N/A,,Overcast,0,2014-02-03 13:53:00
8:53 AM,39.9,33.1,77,30.23,10.0,Variable,3.5,-,N/A,,Overcast,0,2014-02-03 14:53:00
9:53 AM,41.0,34.0,76,30.22,10.0,NNE,10.4,-,N/A,,Overcast,30,2014-02-03 15:53:00
10:53 AM,43.0,34.0,71,30.21,10.0,East,10.4,-,N/A,,Overcast,80,2014-02-03 16:53:00
11:53 AM,45.0,35.1,68,30.18,10.0,NNE,12.7,-,N/A,,Overcast,30,2014-02-03 17:53:00
12:53 PM,46.0,35.1,66,30.13,10.0,NE,11.5,-,N/A,,Overcast,40,2014-02-03 18:53:00
1:53 PM,46.9,36.0,66,30.10,10.0,ENE,10.4,-,N/A,,Overcast,70,2014-02-03 19:53:00
2:53 PM,48.9,36.0,61,30.05,10.0,NE,12.7,18.4,N/A,,Overcast,40,2014-02-03 20:53:00
3:53 PM,48.0,36.0,63,30.05,10.0,East,10.4,-,N/A,,Overcast,80,2014-02-03 21:53:00
4:53 PM,46.0,36.0,68,30.05,7.0,East,10.4,-,N/A,,Overcast,80,2014-02-03 22:53:00
5:53 PM,45.0,36.0,71,30.06,6.0,East,10.4,-,N/A,,Haze,100,2014-02-03 23:53:00
6:53 PM,44.1,36.0,73,30.06,7.0,East,5.8,-,N/A,,Overcast,90,2014-02-04 00:53:00
7:50 PM,44.6,37.4,76,30.03,5.0,SE,11.5,-,N/A,,Haze,130,2014-02-04 01:50:00
7:53 PM,44.1,37.0,76,30.05,5.0,SE,11.5,-,N/A,,Haze,130,2014-02-04 01:53:00
8:53 PM,43.0,37.9,82,30.04,3.0,ESE,8.1,-,N/A,,Haze,110,2014-02-04 02:53:00
9:50 PM,42.8,39.2,87,29.99,2.5,ESE,8.1,-,N/A,,Overcast,110,2014-02-04 03:50:00
9:53 PM,42.1,39.0,89,30.01,3.0,ESE,8.1,-,N/A,,Overcast,120,2014-02-04 03:53:00
10:53 PM,43.0,39.0,86,29.99,4.0,SE,6.9,-,N/A,,Overcast,130,2014-02-04 04:53:00
11:32 PM,42.8,39.2,87,29.96,2.5,SE,5.8,-,N/A,,Overcast,140,2014-02-04 05:32:00
11:53 PM,42.1,39.9,92,29.96,2.0,SE,4.6,-,N/A,,Overcast,140,2014-02-04 05:53:00